AirNav   Pilot Hours Calculator
 
 398 users online  

4AL8 Milton Airport
Huntsville, Alabama, USA

GOING TO HUNTSVILLE?


FAA INFORMATION EFFECTIVE 28 MARCH 2019

Location

FAA Identifier: 4AL8
Lat/Long: 34-29-25.9500N / 086-40-24.3600W
34-29.432500N / 086-40.406000W
34.4905417 / -86.6734333
(estimated)
Elevation: 639 ft. / 195 m (estimated)
Variation: 00W (1985)
From city: 18 miles S of HUNTSVILLE, AL
Time zone: UTC -5 (UTC -6 during Standard Time)
Zip code: 35754

Airport Operations

Airport use: Private use. Permission required prior to landing
Activation date: 05/1976
Control tower: no
ARTCC: MEMPHIS CENTER
FSS: ANNISTON FLIGHT SERVICE STATION
Attendance: IREG
Wind indicator: yes
Segmented circle: no

Airport Communications

WX ASOS at HSV (10 nm NW): PHONE 256-772-8074
WX AWOS-3PT at CMD (16 nm SW): 124.175 (256-775-7476)
WX ASOS at DCU (17 nm NW): 118.375 (256-350-4270)

Nearby radio navigation aids

VOR radial/distance  VOR name  Freq  Var
DCUr127/16.2DECATUR VOR/DME112.8001W
RQZr184/18.5ROCKET VORTAC112.2002E

 
NDB name  Hdg/Dist  Freq  Var  ID
REDSTONE181/12.528704WHUA .... ..- .-

Airport Services

Runway Information

Runway 13/31

Dimensions: 2242 x 200 ft. / 683 x 61 m
Surface: turf
RUNWAY 13  RUNWAY 31
Latitude: 34-29.556000N34-29.309000N
Longitude: 086-40.572000W086-40.240000W
Elevation: 639.0 ft.637.0 ft.
Traffic pattern: leftleft
Obstructions: 75 ft. pline, 1000 ft. from runway500 ft. mtn, 5280 ft. from runway

Airport Ownership and Management from official FAA records

Ownership: Privately-owned
Owner: RICHARD D. MILTON
142 MILTON AIRPORT RD
LACEY SPRINGS, AL 35754
Phone (256) 261-8182
Manager: RICHARD D. MILTON
142 MILTON AIRPORT RD
LACEY SPRINGS, AL 35754
Phone (256) 261-8182
TELEPHONE AT HANGAR 256-566-6718 OR 256-261-8182.

Airport Operational Statistics

Aircraft based on the field: 4
Single engine airplanes: 4
    

Instrument Procedures

There are no published instrument procedures at 4AL8.

Some nearby airports with instrument procedures:

KHSV - Huntsville International Airport-Carl T Jones Field (10 nm NW)
KHUA - Redstone Army Airfield (11 nm N)
5M0 - Hartselle-Morgan County Regional Airport (14 nm W)
KCMD - Cullman Regional Airport-Folsom Field (16 nm SW)
KDCU - Pryor Field Regional Airport (17 nm NW)
 
Loc | Ops | Rwys | IFR | FBO | Links
Com | Nav | Svcs | Stats | Notes
Area around 4AL8 (Milton Airport)
 
Road maps at: MapQuest Bing Google
 
Aerial photo
No photo
 
Sectional chart

 
Airport distance calculator
Flying to Milton Airport? Find the distance to fly.

From to 4AL8

Sunrise and sunset
Times for 23-Apr-2019
 Local
(UTC-5)
 Zulu
(UTC)
Morning civil twilight05:4010:40
Sunrise06:0711:07
Sunset19:2400:24
Evening civil twilight19:5000:50

Current date and time
Zulu (UTC)  23-Apr-2019 09:54:07
Local (UTC-5)  23-Apr-2019 04:54:07
 
METAR
KHSV 
11nm NW 
230853Z AUTO 00000KT 10SM CLR 13/12 A3010 RMK AO2 SLP187 T01330117 55007 $
KHUA 
11nm N 
230858Z AUTO 00000KT 10SM CLR 11/10 A3009 RMK AO2 SLP187 T01140103 55006
KCMD 
16nm SW 
230935Z AUTO 00000KT 7SM CLR 10/09 A3013 RMK AO2 T00970088
KDCU 
17nm NW 
230853Z AUTO 00000KT 10SM CLR 11/11 A3011 RMK AO2 SLP190 T01110106 56006
TAF
KHSV 
11nm NW 
230520Z 2306/2406 00000KT P6SM FEW250 FM231600 23007KT P6SM SCT250 FM240000 20003KT P6SM SCT250
NOTAMs
Click for the latest NOTAMs
NOTAMs are issued by the DoD/FAA and will open in a separate window not controlled by AirNav.

 

 
 

Would you like to see your business listed on this page?

 If your business provides an interesting product or service to pilots, flight crews, aircraft, or users of the Milton Airport, you should consider listing it here.  To start the listing process, click on the button below
 
Add a business
 

Other Pages about Milton Airport

Update a link
 
Copyright © AirNav, LLC. All rights reserved. Privacy Policy  Contact